Terminal Aerodrome Forecast
Issued by NWS Newport/Morehead City, NC

Home | Current Version | Previous Version | Graphics & Text | Print | Product List | Glossary On
Versions: 1 2 3 4 5 6 7 8 9 10 11 12 13 14 15 16
000
FTUS42 KMHX 311345 AAA
TAFEWN
TAF AMD
KEWN 311345Z 3114/0112 VRB04KT P6SM SCT025
      TEMPO 3114/3116 BKN025
     FM311600 18007KT P6SM SCT040=

USA.gov is the U.S. government's official web portal to all federal, state and local government web resources and services.